GFSSW_prec_cloud_021.txt.gz
Cloud_Cover
0 0 27 38 32 47 39 100 100 100 100 100 100 100 100 100 73 46 100 100 100 100 100 100 100 100 100 100 100 100 55 100 100 100 100 100 100 100 100 92 100 100 100 100 100
43 9 75 19 0 0 0 83 100 100 100 100 100 100 100 100 100 43 100 100 100 94 99 100 100 100 100 100 98 100 96 100 100 100 100 100 100 100 100 98 100 100 100 100 100
4 12 100 93 96 61 0 7 100 100 100 100 100 100 100 98 97 90 100 100 94 27 83 82 100 100 100 100 100 100 100 100 100 100 100 100 100 100 100 100 100 100 100 100 100
0 0 10 3 1 1 0 11 0 0 0 93 100 100 36 100 100 95 100 100 100 98 78 73 99 100 100 100 100 100 100 100 100 100 100 100 100 100 100 100 100 100 86 73 8
0 0 0 0 0 0 0 0 0 0 0 0 0 1 99 99 32 100 100 100 100 100 74 98 70 63 100 100 100 69 100 100 100 100 86 88 94 100 100 100 100 100 100 24 4
0 0 0 0 0 0 0 0 0 0 0 0 14 96 59 78 100 52 37 5 90 62 100 100 95 100 40 80 63 99 34 24 23 83 98 100 100 100 100 100 100 100 85 5 2
0 0 0 0 1 6 85 47 3 0 0 0 82 100 75 5 0 22 2 2 27 5 5 100 100 100 59 6 85 100 94 14 51 100 100 100 100 100 100 100 100 93 23 4 2
0 0 0 0 0 0 0 0 4 87 89 10 41 59 33 0 0 0 0 0 6 26 4 5 27 3 83 32 8 100 99 8 73 100 100 100 100 100 100 100 54 5 0 0 0
1 0 0 0 5 0 0 0 0 0 0 6 75 31 2 1 0 0 0 0 0 0 20 79 6 0 0 0 60 11 3 0 65 100 100 100 67 95 100 99 6 5 5 4 5
0 0 0 0 4 0 1 0 0 0 0 2 7 40 96 100 36 0 0 0 0 0 1 0 0 2 0 0 0 3 99 100 63 100 99 2 0 0 0 7 7 28 28 15 13
0 2 18 24 6 8 19 0 0 0 2 4 4 18 2 2 90 100 81 2 0 0 0 0 0 0 0 0 0 0 0 0 3 86 100 5 0 0 0 2 5 5 5 5 5
0 0 0 4 2 0 9 0 91 10 50 0 0 0 0 0 0 16 100 99 26 0 0 0 0 0 0 0 0 0 0 0 0 0 28 48 0 0 0 0 0 0 0 0 0
0 0 2 0 0 0 3 18 27 5 0 34 3 1 0 0 0 0 16 100 100 82 3 0 0 0 0 0 0 0 0 0 0 0 0 0 0 0 0 0 0 0 0 0 0
0 0 0 7 1 0 0 0 3 5 5 84 21 49 36 0 0 0 0 3 99 100 100 8 0 0 0 0 0 0 0 0 0 0 0 0 0 0 0 0 0 0 0 0 0
0 0 0 2 0 0 0 0 76 45 98 100 100 100 100 96 97 68 100 52 2 59 100 75 42 1 0 0 0 0 0 0 0 0 0 0 0 0 0 0 0 0 0 0 0
0 0 6 0 0 0 1 2 14 100 100 100 100 100 100 98 83 100 100 48 37 89 3 90 68 16 5 1 0 0 0 0 0 0 2 0 0 0 0 0 0 0 0 0 0
0 0 34 0 0 0 0 5 8 98 52 55 68 100 100 100 98 100 100 100 75 100 3 22 59 5 5 5 2 0 0 0 0 0 0 0 0 0 3 0 0 0 0 0 0
5 0 5 0 0 0 2 2 44 5 4 10 15 100 100 98 100 100 100 96 100 100 59 14 17 4 87 55 78 10 4 2 0 0 0 0 0 0 0 0 0 0 0 0 0
5 5 5 0 0 0 2 19 32 20 100 55 22 32 59 90 100 100 100 59 28 60 45 71 20 86 5 52 91 41 3 2 0 0 0 0 0 0 0 0 0 0 0 0 0
93 27 23 3 0 1 4 80 36 99 100 32 37 33 0 60 79 100 78 46 75 38 10 46 18 13 100 74 4 94 57 5 0 2 0 0 0 0 0 2 0 0 0 0 0
1 65 30 5 0 4 5 88 62 95 51 96 100 53 76 100 79 99 99 81 78 88 50 53 8 26 100 99 1 13 73 57 2 0 0 0 0 3 0 100 2 0 0 0 0
0 61 53 5 4 7 43 64 22 100 60 1 0 6 100 51 79 10 45 100 100 100 3 4 5 38 88 99 12 0 0 13 64 4 2 3 0 95 99 29 4 0 0 0 0
60 8 66 5 4 5 31 84 85 100 100 36 6 19 6 8 98 100 100 100 100 86 67 22 4 5 100 98 100 2 1 21 30 100 60 41 1 24 70 46 5 0 2 0 36
28 12 90 45 5 5 17 60 59 100 100 94 2 4 56 8 72 97 61 100 80 100 29 5 34 6 50 100 100 43 14 98 74 6 27 5 77 5 16 92 5 1 0 5 81
9 22 16 50 27 55 100 77 87 100 98 100 96 5 37 22 20 4 10 53 99 100 80 79 100 98 100 100 78 5 100 98 8 0 0 3 50 2 85 2 0 3 0 5 93
13 64 100 100 98 73 99 96 61 75 98 84 100 80 100 91 93 14 22 6 38 100 100 100 100 98 100 100 100 5 100 84 2 0 0 6 35 99 85 71 5 0 1 100 100
31 60 100 100 100 37 83 73 71 100 86 55 57 86 29 89 99 75 3 1 3 100 100 100 100 100 100 100 100 80 38 5 0 0 2 24 26 97 74 100 5 0 40 100 100

GFSSW_prec_cloud_024.txt.gz
Cloud_Cover
4 90 100 100 7 93 0 0 100 100 100 100 100 100 100 100 100 100 100 100 100 100 99 100 100 100 100 100 100 90 100 100 100 100 100 100 100 100 100 100 100 100 99 89 100
68 55 4 14 10 1 0 0 34 100 100 100 100 100 100 96 100 100 100 100 100 73 100 100 100 100 100 100 86 100 100 100 100 100 100 100 100 100 100 100 100 100 100 100 100
53 100 52 1 0 9 32 28 0 5 100 100 100 100 100 100 100 100 100 100 100 90 100 100 100 100 94 100 96 98 100 100 100 100 100 100 100 100 100 96 100 100 100 100 100
0 0 0 0 0 0 0 0 0 0 0 2 55 100 100 100 100 100 100 100 100 100 99 100 100 100 51 89 100 26 95 100 100 100 100 75 100 100 91 100 100 100 100 100 100
0 4 0 0 0 0 0 0 0 0 0 1 0 87 100 100 100 100 100 100 100 100 96 100 100 100 27 94 100 45 100 54 100 100 100 100 100 100 100 100 100 100 100 100 97
0 0 0 0 0 0 0 0 6 1 0 0 12 100 100 100 100 100 100 100 100 100 100 99 99 100 97 70 82 50 52 99 100 100 100 100 100 100 100 100 100 100 91 92 97
30 0 0 0 0 0 0 0 0 1 32 42 2 92 100 40 6 100 100 100 100 100 99 100 100 100 97 64 7 49 17 5 5 100 100 100 92 99 100 100 100 99 84 57 83
76 0 19 4 19 0 0 0 0 0 30 61 76 96 50 5 0 5 100 9 100 100 100 100 94 100 41 48 73 5 4 0 3 100 100 100 53 100 100 100 67 18 5 4 9
0 0 0 0 64 0 0 4 0 0 0 0 22 38 20 1 41 5 7 22 0 61 100 100 8 52 100 97 22 5 4 4 99 100 100 100 16 100 100 92 3 0 4 5 100
0 0 0 87 55 7 2 0 0 0 0 0 0 20 0 0 0 1 65 5 1 0 0 7 15 5 0 0 34 85 93 1 11 100 100 100 0 5 88 41 0 0 1 5 24
0 0 0 18 44 2 36 19 0 0 0 0 0 0 0 0 0 0 0 4 3 0 0 0 0 0 21 90 4 0 0 0 0 14 100 94 1 48 5 5 5 6 47 56 5
0 0 0 0 1 0 40 0 0 0 0 0 42 6 100 0 0 3 1 0 5 38 5 1 0 0 0 0 0 0 0 0 3 5 15 4 0 0 6 3 5 99 49 36 2
0 0 0 0 0 0 0 0 0 0 0 2 57 34 55 0 0 0 0 0 0 1 5 5 2 0 0 0 0 0 0 0 0 4 4 0 0 0 0 0 1 1 64 17 40
0 0 0 20 0 0 0 0 0 0 5 100 100 100 93 5 31 0 0 0 0 0 0 4 25 4 0 0 0 0 0 0 0 0 0 0 0 0 0 0 0 0 0 0 0
0 0 0 7 28 0 0 0 0 0 3 42 100 100 100 100 99 61 99 93 0 0 0 0 64 67 5 1 0 0 0 0 0 0 0 0 0 0 0 0 0 0 0 0 0
1 0 31 10 3 0 0 0 0 2 4 34 90 100 100 100 100 100 100 51 70 51 5 0 2 99 83 52 5 2 0 0 0 0 0 0 0 0 0 0 0 0 0 0 0
0 0 30 0 0 0 0 0 2 5 10 16 5 100 100 100 98 100 100 100 100 78 20 72 100 29 100 83 5 1 0 0 0 0 0 0 0 0 0 0 0 0 0 0 0
0 0 0 2 0 0 0 1 13 5 11 25 1 8 79 100 89 76 100 100 100 100 100 99 35 14 100 100 99 49 4 2 0 0 0 0 0 0 22 0 0 0 0 0 0
0 2 0 0 3 8 0 5 8 48 5 28 56 100 18 10 100 100 100 100 100 100 13 10 5 27 5 100 100 96 10 4 1 0 0 0 0 0 0 0 0 0 0 0 0
48 9 0 0 5 27 0 3 5 98 26 71 92 100 75 36 37 100 100 100 100 90 92 2 0 1 100 51 99 100 94 51 0 0 0 0 0 0 0 0 0 0 0 0 0
10 0 0 4 5 20 5 14 4 50 6 7 50 21 81 100 42 61 100 100 98 10 15 5 4 0 4 16 12 100 76 54 31 1 0 0 0 0 0 0 0 0 2 0 0
10 0 4 5 47 81 18 5 2 5 100 100 5 5 81 100 42 100 100 100 92 51 87 32 6 5 0 22 94 100 12 43 5 5 5 0 1 5 1 0 0 0 0 0 0
92 4 4 29 5 5 78 5 93 47 93 92 60 5 5 40 47 9 75 38 38 100 22 50 44 5 0 4 99 100 23 0 1 5 5 0 84 5 0 2 5 0 0 0 0
68 16 5 10 29 5 57 85 56 59 50 100 20 5 5 4 28 76 5 22 4 97 99 89 71 88 31 2 49 98 89 4 0 0 5 4 99 7 50 27 10 1 0 0 0
17 4 5 34 100 34 42 100 82 90 75 53 16 6 77 81 80 5 5 3 5 49 100 100 100 73 95 94 78 89 73 52 5 2 0 61 99 88 100 5 5 77 0 0 0
2 12 93 63 100 100 76 100 71 99 100 89 92 7 11 96 100 100 26 36 5 32 100 100 99 83 71 49 5 100 93 68 5 0 3 84 100 97 10 0 5 23 1 0 5
15 11 98 50 99 100 94 90 88 100 54 98 95 6 100 93 100 100 99 17 18 5 15 54 99 100 100 100 37 94 100 4 5 5 0 36 100 99 44 22 51 46 1 5 9

GFSSW_prec_cloud_030.txt.gz
Cloud_Cover
100 100 100 8 1 0 0 0 0 0 0 52 92 76 99 100 100 100 100 100 100 100 90 96 100 100 100 100 100 100 100 100 100 100 100 100 96 20 85 100 100 100 100 100 92
100 100 80 0 3 0 0 0 0 0 0 35 96 17 98 100 100 100 100 100 100 100 100 98 100 100 87 79 100 100 100 100 100 100 100 100 100 100 100 100 100 100 80 100 100
100 13 31 1 34 4 40 4 0 0 0 0 24 36 100 100 100 100 94 100 100 100 100 100 100 100 22 93 98 81 100 100 100 100 100 100 100 100 100 100 100 100 100 100 100
99 34 0 37 0 5 51 2 2 0 0 7 53 100 100 100 38 69 100 100 100 100 100 100 100 68 91 30 100 88 79 100 100 100 100 100 100 100 100 100 100 100 100 100 100
1 32 4 0 0 0 1 4 5 18 78 100 100 100 100 100 100 98 100 98 100 100 100 100 100 100 20 92 100 44 100 97 100 100 100 100 100 100 100 100 100 100 100 100 89
6 0 0 0 0 0 0 0 17 100 100 100 100 100 1 57 79 97 100 100 100 100 100 100 100 100 95 38 85 27 65 45 100 100 100 100 100 86 100 100 100 100 100 100 100
0 0 0 0 0 1 0 0 0 40 84 93 98 10 4 2 0 0 0 1 100 100 100 100 100 100 100 100 33 44 55 29 54 43 100 100 100 52 100 100 100 100 100 100 72
0 0 5 0 0 0 0 0 0 0 0 7 44 4 21 0 0 0 0 0 6 100 100 97 100 78 100 95 37 55 69 18 14 100 100 100 44 100 100 100 100 87 5 5 5
18 9 3 0 4 2 0 0 0 0 0 0 0 34 9 0 0 0 0 0 0 71 100 100 100 96 100 100 99 56 6 18 100 100 100 100 22 55 81 100 21 5 4 4 5
27 1 3 5 4 2 2 0 0 0 0 0 2 26 0 0 0 0 0 0 0 0 11 100 98 95 5 58 99 96 96 59 100 100 100 30 0 5 98 95 2 1 0 1 5
34 5 5 0 14 0 0 0 0 0 0 0 0 0 0 0 0 0 0 0 0 0 0 0 0 0 0 2 3 100 24 5 100 100 100 16 0 63 32 2 0 0 0 5 5
72 56 96 22 6 6 0 0 0 5 0 0 0 0 0 0 0 0 0 0 0 0 0 0 0 0 0 0 0 0 85 26 76 92 11 37 0 5 0 0 5 5 4 0 5
48 100 100 46 6 0 0 0 0 1 1 0 0 0 0 0 0 0 0 0 0 3 1 7 0 0 0 2 2 0 0 36 100 100 86 80 0 0 0 0 23 5 5 28 86
70 100 100 94 0 0 0 0 0 0 2 0 0 0 0 0 0 0 0 2 0 5 98 77 4 2 10 0 5 5 0 0 1 46 48 51 0 5 47 5 3 18 87 100 94
100 100 100 98 7 0 0 0 0 0 0 0 0 0 0 0 0 0 0 5 2 0 80 5 0 0 98 5 90 46 5 5 1 0 0 0 0 4 98 99 100 100 100 100 74
100 100 100 1 78 5 0 0 0 0 0 0 0 0 0 0 0 0 0 36 5 48 44 33 7 74 1 0 3 0 0 3 77 6 0 0 0 0 18 66 95 87 100 100 100
56 62 98 0 0 0 0 0 0 2 0 0 0 0 0 0 0 0 0 10 90 100 35 63 63 33 100 4 0 0 5 0 3 5 0 0 0 0 46 2 0 0 10 5 0
0 0 21 3 0 0 0 0 2 1 0 3 5 0 0 0 0 0 0 12 100 100 94 95 99 5 100 57 0 5 24 0 0 0 0 0 0 0 0 0 0 0 0 0 0
0 0 0 0 0 0 0 5 3 5 4 5 3 1 0 0 0 1 0 11 100 100 100 100 100 100 92 51 5 24 97 0 0 0 5 0 0 0 0 0 0 0 0 0 0
43 5 0 0 0 0 1 2 0 5 5 5 6 6 5 5 5 2 5 2 100 100 100 100 100 100 100 100 91 47 11 24 17 0 2 0 0 0 0 0 0 0 0 0 0
0 0 0 0 0 1 3 2 5 5 5 5 5 89 35 69 5 5 5 11 100 99 100 100 100 100 100 100 100 89 100 78 1 0 0 0 0 0 0 0 0 0 0 0 0
2 6 5 0 5 3 2 5 5 5 7 27 65 78 69 44 26 5 5 48 63 81 100 100 100 100 100 91 24 27 12 90 30 0 0 0 0 0 2 0 0 0 0 17 82
100 74 5 0 4 4 5 19 5 5 5 11 18 40 99 81 96 5 3 50 100 41 49 100 100 99 100 100 37 1 0 5 5 5 0 0 0 0 29 0 0 0 0 29 100
52 5 4 3 4 5 20 99 64 100 13 46 5 44 100 76 95 93 74 100 94 66 32 37 79 100 100 70 6 5 2 5 48 23 0 0 13 5 88 0 0 0 0 9 100
12 7 38 11 5 5 76 97 100 98 100 100 38 76 98 100 100 100 100 98 100 100 100 5 99 23 24 23 26 5 5 5 16 50 60 4 24 14 89 0 0 0 0 9 94
72 15 16 6 4 5 5 5 32 100 99 100 100 100 100 91 100 100 96 100 100 100 100 63 74 54 100 35 5 5 5 5 5 5 60 54 27 100 92 3 0 1 0 2 40
100 98 61 73 5 75 23 5 5 100 56 81 100 100 100 96 100 100 100 100 100 100 100 100 100 100 100 9 28 5 0 2 0 1 1 13 85 100 93 38 100 4 5 0 4

GFSSW_prec_cloud_033.txt.gz
Cloud_Cover
100 4 24 4 16 1 3 1 1 30 0 0 0 4 100 100 100 100 100 100 100 80 94 100 100 100 100 100 100 97 13 73 100 100 100 100 100 10 6 54 100 99 100 100 100
63 15 7 6 0 0 0 0 1 0 0 2 4 0 4 26 100 59 100 100 100 100 100 35 99 100 92 99 87 68 32 100 100 100 100 100 100 82 17 10 100 80 78 97 100
26 0 1 0 0 1 10 0 0 0 3 31 32 48 5 0 0 45 100 100 100 100 100 100 100 100 100 85 99 98 32 100 100 100 100 100 100 100 100 28 5 6 88 100 100
0 0 1 0 0 0 0 1 5 18 100 100 70 6 0 0 0 6 100 100 100 100 100 100 100 100 100 99 100 95 35 100 100 100 100 100 100 31 96 100 100 80 37 94 99
1 1 0 0 0 1 0 4 10 58 100 100 0 0 0 0 0 0 0 0 25 83 100 100 100 100 100 100 100 20 54 49 100 100 100 100 100 100 98 100 100 100 100 100 100
0 1 2 0 0 0 0 0 5 44 69 15 0 0 0 0 0 0 0 0 7 14 100 100 100 100 100 99 100 100 97 99 100 100 100 100 100 100 100 100 100 100 100 100 100
44 22 7 0 0 2 0 0 0 1 39 0 0 7 0 0 0 0 0 0 6 100 38 97 100 100 100 100 88 100 100 93 76 100 100 100 62 100 100 100 96 100 100 100 100
2 24 24 0 1 0 0 0 0 0 0 0 1 0 0 0 0 0 0 0 0 9 5 5 23 100 96 42 5 98 98 8 61 100 100 100 20 21 100 100 100 100 100 100 32
11 19 11 10 3 3 0 0 0 0 0 0 0 0 0 0 0 0 0 0 0 0 0 4 5 76 5 6 11 5 58 79 100 100 100 100 4 3 94 75 79 93 15 5 70
47 30 59 100 22 5 2 0 0 0 5 0 0 0 0 0 0 0 0 0 0 0 0 0 2 16 20 5 5 93 47 62 5 100 100 89 0 22 82 90 4 7 6 21 28
4 100 100 100 28 5 1 0 0 0 0 0 0 0 0 0 0 0 0 0 0 0 0 0 0 0 6 5 3 0 2 5 30 18 100 80 4 96 79 32 3 2 5 5 5
38 100 100 100 11 4 0 0 0 0 0 0 0 0 0 0 0 0 0 0 0 0 0 0 0 0 0 0 0 0 0 0 9 33 27 5 5 4 82 5 0 0 5 5 5
33 100 100 100 0 0 0 0 0 0 0 0 0 0 0 0 0 0 0 0 0 0 0 5 0 0 0 0 0 4 5 4 0 16 5 0 0 0 4 5 4 0 4 36 100
36 100 100 98 0 0 0 0 0 0 3 0 0 0 0 0 0 0 0 0 0 0 0 1 2 2 0 4 1 87 63 33 4 3 1 0 0 0 11 33 29 100 86 99 100
98 100 100 100 52 0 0 0 0 0 0 0 0 0 0 0 0 0 0 0 0 3 5 0 3 10 98 100 5 5 99 98 100 43 5 0 3 0 0 5 99 100 100 100 88
27 100 99 27 96 0 0 0 0 0 0 0 0 0 0 0 0 0 0 0 0 2 4 2 4 7 37 94 97 40 3 4 100 100 68 0 3 0 0 0 2 100 98 84 89
18 23 18 0 0 0 0 0 0 0 0 0 0 0 0 0 0 0 0 0 4 6 50 14 6 31 94 98 100 55 100 5 16 95 5 0 0 0 0 0 0 1 87 100 74
0 0 0 0 0 0 0 0 0 0 0 0 5 0 0 0 0 0 0 0 5 33 88 100 91 99 99 23 57 11 5 85 2 2 0 0 0 0 0 0 0 0 0 0 0
5 2 2 0 0 0 0 0 0 0 3 55 9 5 0 3 5 4 0 2 5 70 75 100 99 89 100 100 100 100 99 1 5 0 0 0 0 0 0 0 0 0 0 0 0
5 54 35 0 0 0 0 0 0 5 5 5 77 5 50 25 52 21 4 0 4 18 96 100 100 94 100 98 100 100 100 81 96 4 0 0 0 0 1 1 0 0 0 0 0
16 54 63 5 3 0 2 3 4 3 5 9 52 89 94 69 74 86 24 0 5 5 100 100 100 97 100 100 100 100 100 87 97 2 4 2 0 5 3 29 0 0 0 0 0
8 84 100 27 5 5 4 5 5 5 5 10 16 14 66 70 78 83 15 5 5 10 63 100 100 100 88 100 100 100 100 98 63 6 2 2 0 0 1 88 0 0 0 0 83
100 81 91 72 5 6 5 5 11 11 8 31 37 15 41 68 98 75 100 100 18 33 98 77 91 100 100 100 100 100 100 100 7 4 77 35 2 0 15 4 0 0 0 0 20
97 6 44 99 17 5 5 5 5 27 8 40 80 86 54 100 84 100 100 69 100 92 37 68 81 69 100 100 100 100 100 25 5 30 38 13 1 0 69 0 0 0 0 0 1
100 76 52 94 15 5 18 13 5 68 40 33 70 87 100 100 100 100 100 100 100 95 98 91 92 80 14 26 52 27 100 42 5 5 24 7 1 0 99 0 0 0 0 0 0
100 100 32 77 100 5 5 5 11 31 7 53 84 89 100 100 96 89 94 100 100 100 100 88 100 100 93 6 5 5 60 4 5 4 5 5 3 6 100 2 0 0 0 0 0
100 100 100 60 100 88 22 5 5 32 14 96 100 100 100 37 100 100 100 100 100 100 100 100 99 100 91 38 20 6 26 0 0 0 4 4 8 100 97 100 0 0 1 0 0